NOAA 6 (11416 NORAD) Tracking and Keplerian Element Data

This shows tracking and keplerian element data for the satellite.

Feedback or suggestion? Click here.




ElementValue
Catalog11416
NameNOAA 6
Epoch Orbit36309
Epoch Day286.63142897
Epoch Year2024
RAAN307.7036
Inclination98.6242
Eccentricity0.0008798
Argument of Perigee273.5271
Mean Anonmoly86.4908
Mean Motion14.34775076
Decay Rate1.42E-05
L11 11416U 79057A 24286.63142897 .00001420 00000+0 51626-3 0 9992
L22 11416 98.6242 307.7036 0008798 273.5271 86.4908 14.34775076363091



Live tracking and technical data element details for NOAA 6 (NORAD 11416). NOAA 6 can be tracked NOW for your location showing map with azimuth and elevation plus other details from your city location.







IsCatalogInMostPopularTable: catalog: 11416, numindb: 845
Update: records affected: 1



GetName: 11416 NOAA 6

Hit Count: updated at: Tue, 03 Dec 2024 03:06:36 GMT